Ardmore Downtown, OK

1:47 PM CST on November 24, 2017 (GMT -0600)
Ardmore Downtown

Weather History for K1F0 - January, 2013

Change the Weather History Date:

Sunday, January 13, 2013

  Actual Average (KADM) Record (KADM)
Temperature  
Mean Temperature 30 °F -  
Max Temperature 35 °F 50 °F 68 °F (2002)
Min Temperature 26 °F 32 °F 15 °F (1997)
Degree Days  
Heating Degree Days 34    
Moisture  
Dew Point 19 °F    
Average Humidity 62    
Maximum Humidity 75    
Minimum Humidity 48    
Precipitation  
Precipitation 0.00 in - - ()
Sea Level Pressure  
Sea Level Pressure 30.20 in    
Wind  
Wind Speed 9 mph (NNE)    
Max Wind Speed 15 mph    
Max Gust Speed 23 mph    
Visibility 10 miles    
Events      
Averages and records for this station are not official NWS values.
T = Trace of Precipitation, MM = Missing Value Source: NWS Daily Summary

Daily Weather History Graph

Daily Weather History Graph

Search for Another Location

Airport or City:

Trip Planner

Search our weather history database for the weather conditions in past years. The results will help you decide how hot, cold, wet, or windy it might be!

Date:

Astronomy

Jan. 13, 2013 Rise Set
Actual Time 7:34 AM CST 5:40 PM CST
Civil Twilight 7:07 AM CST 6:07 PM CST
Nautical Twilight 6:36 AM CST 6:38 PM CST
Astronomical Twilight 6:06 AM CST 7:08 PM CST
Moon 8:41 AM CST (1/13) 8:11 PM CST (1/13)
Length of Visible Light 11h 00m
Length of Day
10h 06m
Waxing Crescent, 5% of the Moon is Illuminated
Jan 13
Waxing Crescent
Jan 18
First Quarter
Jan 26
Full
Feb 3
Last Quarter
Feb 10
New

Hourly Weather History & Observations

Time (CST) Temp. Windchill Dew Point Humidity Pressure Visibility Wind Dir Wind Speed Gust Speed Precip Events Conditions
12:15 AM 32.0 °F 21.6 °F 23.0 °F 69% 29.97 in 10.0 mi NNE 15.0 mph 21.9 mph N/A   Overcast
12:35 AM 32.0 °F 23.0 °F 23.0 °F 69% 29.99 in 10.0 mi NNE 11.5 mph 19.6 mph N/A   Overcast
12:55 AM 32.0 °F 23.0 °F 23.0 °F 69% 30.00 in 10.0 mi NNE 11.5 mph 19.6 mph N/A   Overcast
1:15 AM 32.0 °F 23.6 °F 23.0 °F 69% 30.01 in 10.0 mi NNE 10.4 mph 23.0 mph N/A   Overcast
1:35 AM 32.0 °F 24.8 °F 23.0 °F 69% 30.03 in 10.0 mi North 8.1 mph 16.1 mph N/A   Overcast
1:55 AM 32.0 °F 28.7 °F 23.0 °F 69% 30.06 in 10.0 mi NW 3.5 mph 10.4 mph N/A   Overcast
2:15 AM 32.0 °F 24.8 °F 23.0 °F 69% 30.06 in 10.0 mi North 8.1 mph - N/A   Overcast
2:35 AM 30.2 °F 21.9 °F 23.0 °F 75% 30.05 in 10.0 mi North 9.2 mph 21.9 mph N/A   Overcast
2:55 AM 30.2 °F 23.4 °F 23.0 °F 75% 30.08 in 10.0 mi North 6.9 mph - N/A   Overcast
3:15 AM 30.2 °F 22.6 °F 23.0 °F 75% 30.06 in 10.0 mi North 8.1 mph 16.1 mph N/A   Overcast
3:35 AM 30.2 °F 21.3 °F 23.0 °F 75% 30.07 in 10.0 mi NNE 10.4 mph 23.0 mph N/A   Overcast
3:55 AM 30.2 °F 20.8 °F 23.0 °F 75% 30.08 in 10.0 mi NNE 11.5 mph 18.4 mph N/A   Overcast
4:15 AM 30.2 °F 21.9 °F 23.0 °F 75% 30.08 in 10.0 mi NNE 9.2 mph 19.6 mph N/A   Overcast
4:35 AM 30.2 °F 21.9 °F 21.2 °F 69% 30.08 in 10.0 mi North 9.2 mph 16.1 mph N/A   Overcast
4:55 AM 30.2 °F 23.4 °F 21.2 °F 69% 30.07 in 10.0 mi North 6.9 mph - N/A   Mostly Cloudy
5:15 AM 30.2 °F 21.9 °F 21.2 °F 69% 30.08 in 10.0 mi North 9.2 mph 16.1 mph N/A   Scattered Clouds
5:35 AM 30.2 °F 21.9 °F 21.2 °F 69% 30.10 in 10.0 mi NNE 9.2 mph 20.7 mph N/A   Overcast
6:35 AM 28.4 °F 19.7 °F 19.4 °F 69% 30.14 in 10.0 mi North 9.2 mph 19.6 mph N/A   Overcast
6:55 AM 28.4 °F 18.5 °F 19.4 °F 69% 30.15 in 10.0 mi North 11.5 mph 18.4 mph N/A   Mostly Cloudy
7:15 AM 26.6 °F 16.2 °F 19.4 °F 74% 30.17 in 10.0 mi North 11.5 mph 18.4 mph N/A   Scattered Clouds
7:35 AM 26.6 °F 17.5 °F 17.6 °F 69% 30.19 in 10.0 mi North 9.2 mph 17.3 mph N/A   Clear
7:55 AM 26.6 °F 17.5 °F 17.6 °F 69% 30.22 in 10.0 mi NNE 9.2 mph 17.3 mph N/A   Clear
8:15 AM 26.6 °F 17.5 °F 17.6 °F 69% 30.23 in 10.0 mi NNE 9.2 mph 19.6 mph N/A   Clear
8:35 AM 26.6 °F 19.1 °F 17.6 °F 69% 30.24 in 10.0 mi North 6.9 mph 17.3 mph N/A   Clear
9:15 AM 28.4 °F 20.4 °F 15.8 °F 59% 30.26 in 10.0 mi North 8.1 mph 19.6 mph N/A   Clear
9:55 AM 30.2 °F 22.6 °F 15.8 °F 55% 30.27 in 10.0 mi North 8.1 mph 16.1 mph N/A   Clear
10:15 AM 30.2 °F 21.9 °F 15.8 °F 55% 30.28 in 10.0 mi North 9.2 mph - N/A   Clear
10:35 AM 30.2 °F 20.8 °F 15.8 °F 55% 30.28 in 10.0 mi NNE 11.5 mph 17.3 mph N/A   Clear
11:15 AM 30.2 °F 20.2 °F 17.6 °F 60% 30.27 in 10.0 mi NNE 12.7 mph 18.4 mph N/A   Clear
11:55 AM 32.0 °F 24.8 °F 19.4 °F 60% 30.26 in 10.0 mi North 8.1 mph 17.3 mph N/A   Clear
12:15 PM 32.0 °F 24.2 °F 19.4 °F 60% 30.25 in 10.0 mi North 9.2 mph 17.3 mph N/A   Clear
12:35 PM 32.0 °F 24.8 °F 19.4 °F 60% 30.23 in 10.0 mi NNE 8.1 mph 19.6 mph N/A   Clear
12:55 PM 32.0 °F 23.6 °F 17.6 °F 55% 30.22 in 10.0 mi NNE 10.4 mph - N/A   Clear
1:15 PM 33.8 °F 27.7 °F 19.4 °F 56% 30.22 in 10.0 mi NNE 6.9 mph - N/A   Clear
1:35 PM 33.8 °F 24.8 °F 17.6 °F 52% 30.22 in 10.0 mi NNE 12.7 mph 19.6 mph N/A   Clear
1:55 PM 33.8 °F 25.3 °F 17.6 °F 52% 30.21 in 10.0 mi North 11.5 mph 16.1 mph N/A   Clear
2:15 PM 35.6 °F 29.2 °F 19.4 °F 52% 30.21 in 10.0 mi North 8.1 mph - N/A   Clear
2:35 PM 35.6 °F 29.2 °F 19.4 °F 52% 30.21 in 10.0 mi North 8.1 mph 16.1 mph N/A   Clear
2:55 PM 35.6 °F 29.2 °F 17.6 °F 48% 30.21 in 10.0 mi North 8.1 mph - N/A   Clear
3:15 PM 35.6 °F 30.7 °F 19.4 °F 52% 30.21 in 10.0 mi North 5.8 mph - N/A   Clear
3:55 PM 35.6 °F 27.1 °F 17.6 °F 48% 30.22 in 10.0 mi NE 12.7 mph - N/A   Clear
4:15 PM 35.6 °F 29.9 °F 17.6 °F 48% 30.22 in 10.0 mi NNE 6.9 mph - N/A   Clear
4:35 PM 35.6 °F 29.9 °F 17.6 °F 48% 30.23 in 10.0 mi North 6.9 mph - N/A   Clear
4:55 PM 33.8 °F 27.0 °F 17.6 °F 52% 30.24 in 10.0 mi NNE 8.1 mph - N/A   Clear
5:15 PM 33.8 °F 28.6 °F 17.6 °F 52% 30.24 in 10.0 mi NNE 5.8 mph - N/A   Clear
5:35 PM 33.8 °F 27.7 °F 15.8 °F 48% 30.25 in 10.0 mi NNE 6.9 mph - N/A   Clear
5:55 PM 32.0 °F 26.4 °F 17.6 °F 55% 30.26 in 10.0 mi NNE 5.8 mph - N/A   Clear
6:15 PM 32.0 °F 26.4 °F 17.6 °F 55% 30.25 in 10.0 mi NNE 5.8 mph - N/A   Clear
6:35 PM 32.0 °F 26.4 °F 17.6 °F 55% 30.25 in 10.0 mi NNE 5.8 mph - N/A   Clear
6:55 PM 32.0 °F 28.7 °F 17.6 °F 55% 30.26 in 10.0 mi NE 3.5 mph - N/A   Clear
7:15 PM 32.0 °F 27.5 °F 17.6 °F 55% 30.26 in 10.0 mi NE 4.6 mph - N/A   Clear
7:35 PM 32.0 °F 27.5 °F 17.6 °F 55% 30.26 in 10.0 mi NE 4.6 mph - N/A   Clear
7:55 PM 30.2 °F 25.4 °F 19.4 °F 64% 30.26 in 10.0 mi NE 4.6 mph - N/A   Clear
8:15 PM 30.2 °F 24.3 °F 19.4 °F 64% 30.27 in 10.0 mi NE 5.8 mph - N/A   Clear
8:35 PM 30.2 °F 23.4 °F 19.4 °F 64% 30.27 in 10.0 mi NE 6.9 mph - N/A   Clear
8:55 PM 30.2 °F 24.3 °F 19.4 °F 64% 30.27 in 10.0 mi NE 5.8 mph - N/A   Clear
9:15 PM 30.2 °F 23.4 °F 17.6 °F 60% 30.28 in 10.0 mi NE 6.9 mph - N/A   Clear
9:35 PM 28.4 °F 21.2 °F 17.6 °F 64% 30.29 in 10.0 mi NE 6.9 mph - N/A   Clear
9:55 PM 28.4 °F 22.2 °F 17.6 °F 64% 30.30 in 10.0 mi NE 5.8 mph - N/A   Clear
10:15 PM 28.4 °F 21.2 °F 17.6 °F 64% 30.30 in 10.0 mi NNE 6.9 mph - N/A   Clear
10:35 PM 28.4 °F 21.2 °F 17.6 °F 64% 30.31 in 10.0 mi NNE 6.9 mph - N/A   Clear
10:55 PM 28.4 °F 21.2 °F 17.6 °F 64% 30.32 in 10.0 mi NNE 6.9 mph - N/A   Clear
11:15 PM 28.4 °F 22.2 °F 17.6 °F 64% 30.33 in 10.0 mi NNE 5.8 mph - N/A   Clear
11:35 PM 28.4 °F 19.7 °F 17.6 °F 64% 30.33 in 10.0 mi NNE 9.2 mph - N/A   Clear
11:55 PM 28.4 °F 20.4 °F 17.6 °F 64% 30.33 in 10.0 mi NE 8.1 mph - N/A   Clear